| time (UTC) | temp F | wind direction | speed MPH | gust MPH | rain 1hr in | rain 24hr in | rain mn in | humidity % | barometer mb |
| 20260505211056 | 55 | 124 | 1.0 | 4.0 | 0.00 | 0.00 | 0.00 | 75 | 1027.1 |
| 20260505210552 | 56 | 0 | 0.0 | 0.0 | 0.00 | 0.00 | 0.00 | 75 | 1027.0 |
| 20260505210053 | 56 | 0 | 0.0 | 3.0 | 0.00 | 0.00 | 0.00 | 75 | 1026.9 |
| 20260505205552 | 56 | 0 | 0.0 | 3.0 | 0.00 | 0.00 | 0.00 | 75 | 1026.8 |
| 20260505205051 | 56 | 0 | 0.0 | 3.0 | 0.00 | 0.00 | 0.00 | 75 | 1026.7 |
| 20260505204604 | 56 | 0 | 0.0 | 3.0 | 0.00 | 0.00 | 0.00 | 75 | 1026.9 |
| 20260505204052 | 56 | 0 | 1.0 | 3.0 | 0.00 | 0.00 | 0.00 | 74 | 1026.8 |
| 20260505203551 | 56 | 124 | 0.0 | 6.0 | 0.00 | 0.00 | 0.00 | 74 | 1026.8 |
| 20260505203056 | 56 | 124 | 0.0 | 6.0 | 0.00 | 0.00 | 0.00 | 75 | 1026.8 |
| 20260505202553 | 56 | 124 | 2.0 | 4.0 | 0.00 | 0.00 | 0.00 | 75 | 1026.8 |
| 20260505202053 | 56 | 124 | 1.0 | 4.0 | 0.00 | 0.00 | 0.00 | 74 | 1026.8 |
| 20260505201557 | 56 | 125 | 1.0 | 8.0 | 0.00 | 0.00 | 0.00 | 74 | 1026.7 |
| 20260505201052 | 56 | 125 | 2.0 | 8.0 | 0.00 | 0.00 | 0.00 | 74 | 1026.8 |
| 20260505200554 | 56 | 125 | 2.0 | 6.0 | 0.00 | 0.00 | 0.00 | 74 | 1026.8 |
| 20260505200054 | 56 | 125 | 1.0 | 6.0 | 0.00 | 0.00 | 0.00 | 74 | 1026.7 |
| 20260505195552 | 56 | 0 | 2.0 | 5.0 | 0.00 | 0.00 | 0.00 | 74 | 1026.8 |
| 20260505195055 | 56 | 125 | 2.0 | 4.0 | 0.00 | 0.00 | 0.00 | 73 | 1026.7 |
| 20260505194558 | 56 | 0 | 1.0 | 3.0 | 0.00 | 0.00 | 0.00 | 73 | 1026.8 |
| 20260505194053 | 56 | 0 | 0.0 | 2.0 | 0.00 | 0.00 | 0.00 | 72 | 1026.8 |
| 20260505193552 | 57 | 0 | 0.0 | 4.0 | 0.00 | 0.00 | 0.00 | 72 | 1026.8 |
| 20260505193055 | 57 | 0 | 0.0 | 4.0 | 0.00 | 0.00 | 0.00 | 71 | 1026.6 |
| 20260505192554 | 57 | 125 | 1.0 | 4.0 | 0.00 | 0.00 | 0.00 | 71 | 1026.7 |
| 20260505192052 | 57 | 126 | 1.0 | 4.0 | 0.00 | 0.00 | 0.00 | 71 | 1026.7 |
| 20260505191555 | 57 | 126 | 1.0 | 5.0 | 0.00 | 0.00 | 0.00 | 70 | 1026.6 |
| 20260505191051 | 58 | 127 | 1.0 | 5.0 | 0.00 | 0.00 | 0.00 | 70 | 1026.7 |
| 20260505190554 | 58 | 129 | 2.0 | 5.0 | 0.00 | 0.00 | 0.00 | 69 | 1026.6 |
| 20260505190103 | 58 | 130 | 2.0 | 7.0 | 0.00 | 0.00 | 0.00 | 69 | 1026.4 |
| 20260505185551 | 58 | 131 | 2.0 | 7.0 | 0.00 | 0.00 | 0.00 | 69 | 1026.5 |
| 20260505185052 | 58 | 132 | 3.0 | 7.0 | 0.00 | 0.00 | 0.00 | 69 | 1026.4 |
| 20260505184557 | 58 | 133 | 2.0 | 7.0 | 0.00 | 0.00 | 0.00 | 68 | 1026.4 |
| 20260505184053 | 59 | 134 | 2.0 | 7.0 | 0.00 | 0.00 | 0.00 | 67 | 1026.6 |
| 20260505183553 | 59 | 133 | 2.0 | 5.0 | 0.00 | 0.00 | 0.00 | 68 | 1026.6 |
| 20260505183052 | 59 | 133 | 3.0 | 5.0 | 0.00 | 0.00 | 0.00 | 67 | 1026.6 |
| 20260505182553 | 59 | 134 | 1.0 | 4.0 | 0.00 | 0.00 | 0.00 | 67 | 1026.5 |
| 20260505182053 | 59 | 135 | 2.0 | 5.0 | 0.00 | 0.00 | 0.00 | 67 | 1026.4 |
| 20260505181627 | 59 | 135 | 2.0 | 7.0 | 0.00 | 0.00 | 0.00 | 67 | 1026.5 |
| 20260505181055 | 59 | 135 | 1.0 | 7.0 | 0.00 | 0.00 | 0.00 | 66 | 1026.5 |
| 20260505180552 | 59 | 134 | 1.0 | 5.0 | 0.00 | 0.00 | 0.00 | 66 | 1026.5 |
| 20260505180105 | 59 | 135 | 2.0 | 7.0 | 0.00 | 0.00 | 0.00 | 66 | 1026.5 |
| 20260505175553 | 59 | 136 | 2.0 | 7.0 | 0.00 | 0.00 | 0.00 | 65 | 1026.4 |
| 20260505175052 | 59 | 136 | 3.0 | 7.0 | 0.00 | 0.00 | 0.00 | 65 | 1026.3 |
| 20260505174552 | 59 | 136 | 2.0 | 5.0 | 0.00 | 0.00 | 0.00 | 65 | 1026.5 |
| 20260505174051 | 60 | 135 | 2.0 | 8.0 | 0.00 | 0.00 | 0.00 | 65 | 1026.4 |
| 20260505173552 | 60 | 132 | 1.0 | 8.0 | 0.00 | 0.00 | 0.00 | 64 | 1026.4 |
| 20260505173052 | 60 | 130 | 3.0 | 8.0 | 0.00 | 0.00 | 0.00 | 64 | 1026.3 |
| 20260505172552 | 60 | 130 | 3.0 | 9.0 | 0.00 | 0.00 | 0.00 | 64 | 1026.3 |
| 20260505172051 | 60 | 131 | 3.0 | 9.0 | 0.00 | 0.00 | 0.00 | 64 | 1026.3 |
| 20260505171558 | 60 | 131 | 2.0 | 9.0 | 0.00 | 0.00 | 0.00 | 64 | 1026.2 |
| 20260505171053 | 61 | 131 | 3.0 | 10.0 | 0.00 | 0.00 | 0.00 | 64 | 1026.2 |
| 20260505170552 | 60 | 133 | 3.0 | 13.0 | 0.00 | 0.00 | 0.00 | 64 | 1026.2 |
| 20260505170052 | 60 | 122 | 5.0 | 13.0 | 0.00 | 0.00 | 0.00 | 65 | 1026.2 |
| 20260505165552 | 60 | 128 | 3.0 | 7.0 | 0.00 | 0.00 | 0.00 | 65 | 1026.1 |
| 20260505165052 | 60 | 130 | 3.0 | 7.0 | 0.00 | 0.00 | 0.00 | 65 | 1026.3 |
| 20260505164553 | 60 | 131 | 2.0 | 7.0 | 0.00 | 0.00 | 0.00 | 66 | 1026.2 |
| 20260505164052 | 60 | 131 | 2.0 | 7.0 | 0.00 | 0.00 | 0.00 | 65 | 1026.2 |
| 20260505163555 | 60 | 130 | 2.0 | 7.0 | 0.00 | 0.00 | 0.00 | 65 | 1026.2 |
| 20260505163054 | 60 | 129 | 2.0 | 7.0 | 0.00 | 0.00 | 0.00 | 65 | 1026.1 |
| 20260505162551 | 60 | 129 | 3.0 | 8.0 | 0.00 | 0.00 | 0.00 | 65 | 1026.1 |
| 20260505162051 | 60 | 129 | 3.0 | 9.0 | 0.00 | 0.00 | 0.00 | 64 | 1026.1 |
| 20260505161554 | 60 | 128 | 3.0 | 9.0 | 0.00 | 0.00 | 0.00 | 64 | 1026.0 |
| 20260505161052 | 60 | 130 | 3.0 | 8.0 | 0.00 | 0.00 | 0.00 | 64 | 1026.0 |
| 20260505160552 | 60 | 130 | 3.0 | 8.0 | 0.00 | 0.00 | 0.00 | 64 | 1026.0 |
| 20260505153057 | 58 | 184 | 1.0 | 4.0 | 0.00 | 0.00 | 0.00 | 70 | 1026.1 |
| 20260505152552 | 58 | 184 | 1.0 | 6.0 | 0.00 | 0.00 | 0.00 | 71 | 1026.1 |
| 20260505152050 | 58 | 184 | 2.0 | 6.0 | 0.00 | 0.00 | 0.00 | 72 | 1026.1 |
| 20260505151602 | 58 | 182 | 3.0 | 6.0 | 0.00 | 0.00 | 0.00 | 73 | 1026.1 |
| 20260505151057 | 57 | 189 | 2.0 | 6.0 | 0.00 | 0.00 | 0.00 | 74 | 1026.0 |
| 20260505150552 | 57 | 198 | 1.0 | 4.0 | 0.00 | 0.00 | 0.00 | 74 | 1026.0 |
| 20260505140552 | 59 | 0 | 0.0 | 5.0 | 0.00 | 0.00 | 0.00 | 75 | 1026.2 |
| 20260505124556 | 61 | 199 | 2.0 | 5.0 | 0.00 | 0.00 | 0.00 | 72 | 1026.0 |
| 20260505124054 | 61 | 199 | 1.0 | 5.0 | 0.00 | 0.00 | 0.00 | 72 | 1026.0 |
| 20260505123552 | 61 | 199 | 1.0 | 5.0 | 0.00 | 0.00 | 0.00 | 72 | 1026.0 |
| 20260505123100 | 61 | 200 | 1.0 | 5.0 | 0.00 | 0.00 | 0.00 | 72 | 1025.9 |
| 20260505122552 | 61 | 0 | 1.0 | 4.0 | 0.00 | 0.00 | 0.00 | 71 | 1026.0 |
| 20260505122053 | 61 | 0 | 0.0 | 5.0 | 0.00 | 0.00 | 0.00 | 71 | 1026.0 |
| 20260505121557 | 61 | 200 | 1.0 | 5.0 | 0.00 | 0.00 | 0.00 | 71 | 1026.0 |
| 20260505121052 | 61 | 200 | 0.0 | 4.0 | 0.00 | 0.00 | 0.00 | 71 | 1025.9 |
| 20260505120554 | 62 | 200 | 0.0 | 4.0 | 0.00 | 0.00 | 0.00 | 71 | 1025.9 |
| 20260505120111 | 62 | 200 | 1.0 | 4.0 | 0.00 | 0.00 | 0.00 | 71 | 1025.9 |
| 20260505115552 | 62 | 0 | 1.0 | 4.0 | 0.00 | 0.00 | 0.00 | 71 | 1025.9 |
| 20260505115051 | 62 | 200 | 0.0 | 4.0 | 0.00 | 0.00 | 0.00 | 71 | 1025.9 |
| 20260505114556 | 62 | 0 | 1.0 | 4.0 | 0.00 | 0.00 | 0.00 | 70 | 1025.9 |
| 20260505114054 | 62 | 200 | 0.0 | 4.0 | 0.00 | 0.00 | 0.00 | 70 | 1025.8 |
| 20260505113555 | 62 | 200 | 1.0 | 4.0 | 0.00 | 0.00 | 0.00 | 70 | 1025.7 |
| 20260505113108 | 62 | 200 | 1.0 | 4.0 | 0.00 | 0.00 | 0.00 | 70 | 1025.9 |
| 20260505112552 | 62 | 200 | 1.0 | 4.0 | 0.00 | 0.00 | 0.00 | 70 | 1025.8 |
| 20260505112052 | 63 | 0 | 1.0 | 4.0 | 0.00 | 0.00 | 0.00 | 70 | 1025.8 |
| 20260505111553 | 63 | 200 | 0.0 | 4.0 | 0.00 | 0.00 | 0.00 | 69 | 1025.8 |
| 20260505111052 | 63 | 200 | 1.0 | 4.0 | 0.00 | 0.00 | 0.00 | 69 | 1025.7 |
| 20260505110555 | 63 | 200 | 1.0 | 5.0 | 0.00 | 0.00 | 0.00 | 69 | 1025.8 |
| 20260505110109 | 63 | 0 | 1.0 | 5.0 | 0.00 | 0.00 | 0.00 | 69 | 1025.6 |
| 20260505102055 | 65 | 200 | 1.0 | 4.0 | 0.00 | 0.00 | 0.00 | 67 | 1025.2 |
| 20260505101604 | 65 | 0 | 1.0 | 3.0 | 0.00 | 0.00 | 0.00 | 67 | 1025.2 |
| 20260505101052 | 66 | 200 | 1.0 | 4.0 | 0.00 | 0.00 | 0.00 | 67 | 1025.0 |
| 20260505100552 | 66 | 200 | 1.0 | 4.0 | 0.00 | 0.00 | 0.00 | 66 | 1025.0 |
| 20260505100058 | 66 | 199 | 1.0 | 4.0 | 0.00 | 0.00 | 0.00 | 66 | 1025.0 |
| 20260505095552 | 66 | 199 | 1.0 | 4.0 | 0.00 | 0.00 | 0.00 | 65 | 1024.9 |
| 20260505095051 | 67 | 199 | 1.0 | 6.0 | 0.00 | 0.00 | 0.00 | 64 | 1025.0 |
| 20260505094556 | 67 | 0 | 2.0 | 6.0 | 0.00 | 0.00 | 0.00 | 64 | 1024.9 |
| 20260505094052 | 67 | 205 | 1.0 | 5.0 | 0.00 | 0.00 | 0.00 | 63 | 1024.9 |
| 20260505093552 | 68 | 205 | 1.0 | 5.0 | 0.00 | 0.00 | 0.00 | 63 | 1024.8 |
| 20260505093100 | 68 | 205 | 2.0 | 6.0 | 0.00 | 0.00 | 0.00 | 62 | 1024.8 |
| 20260505092553 | 68 | 203 | 2.0 | 7.0 | 0.00 | 0.00 | 0.00 | 62 | 1024.8 |
| 20260505092053 | 68 | 209 | 2.0 | 7.0 | 0.00 | 0.00 | 0.00 | 61 | 1024.6 |
| 20260505091600 | 69 | 209 | 3.0 | 7.0 | 0.00 | 0.00 | 0.00 | 61 | 1024.6 |
| 20260505091051 | 69 | 190 | 3.0 | 7.0 | 0.00 | 0.00 | 0.00 | 60 | 1024.6 |
| 20260505090551 | 69 | 198 | 2.0 | 7.0 | 0.00 | 0.00 | 0.00 | 59 | 1024.6 |
| 20260505090100 | 70 | 210 | 2.0 | 7.0 | 0.00 | 0.00 | 0.00 | 59 | 1024.6 |
| 20260505085552 | 70 | 194 | 1.0 | 6.0 | 0.00 | 0.00 | 0.00 | 58 | 1024.6 |
| 20260505085053 | 71 | 194 | 3.0 | 6.0 | 0.00 | 0.00 | 0.00 | 57 | 1024.7 |
| 20260505084603 | 71 | 234 | 2.0 | 6.0 | 0.00 | 0.00 | 0.00 | 56 | 1024.5 |
| 20260505084054 | 72 | 202 | 1.0 | 8.0 | 0.00 | 0.00 | 0.00 | 56 | 1024.5 |
| 20260505083551 | 72 | 197 | 2.0 | 8.0 | 0.00 | 0.00 | 0.00 | 55 | 1024.6 |
| 20260505083109 | 72 | 206 | 3.0 | 8.0 | 0.00 | 0.00 | 0.00 | 54 | 1024.5 |
| 20260505082556 | 73 | 190 | 2.0 | 6.0 | 0.00 | 0.00 | 0.00 | 53 | 1024.5 |
| 20260505082052 | 73 | 199 | 2.0 | 6.0 | 0.00 | 0.00 | 0.00 | 53 | 1024.4 |
| 20260505081600 | 73 | 205 | 2.0 | 8.0 | 0.00 | 0.00 | 0.00 | 52 | 1024.5 |
| 20260505081052 | 73 | 214 | 2.0 | 8.0 | 0.00 | 0.00 | 0.00 | 51 | 1024.4 |
| 20260505080551 | 73 | 219 | 3.0 | 8.0 | 0.00 | 0.00 | 0.00 | 51 | 1024.4 |
| 20260505080055 | 73 | 213 | 3.0 | 8.0 | 0.00 | 0.00 | 0.00 | 52 | 1024.4 |
| 20260505075551 | 74 | 232 | 1.0 | 6.0 | 0.00 | 0.00 | 0.00 | 52 | 1024.4 |
| 20260505075055 | 74 | 200 | 2.0 | 6.0 | 0.00 | 0.00 | 0.00 | 52 | 1024.3 |
| 20260505074553 | 74 | 234 | 2.0 | 8.0 | 0.00 | 0.00 | 0.00 | 52 | 1024.3 |
| 20260505074052 | 74 | 254 | 2.0 | 8.0 | 0.00 | 0.00 | 0.00 | 54 | 1024.3 |
| 20260505073551 | 74 | 251 | 2.0 | 7.0 | 0.00 | 0.00 | 0.00 | 53 | 1024.3 |
| 20260505073059 | 74 | 246 | 2.0 | 7.0 | 0.00 | 0.00 | 0.00 | 50 | 1024.3 |
| 20260505072552 | 75 | 243 | 2.0 | 7.0 | 0.00 | 0.00 | 0.00 | 51 | 1024.4 |
| 20260505072052 | 75 | 260 | 1.0 | 7.0 | 0.00 | 0.00 | 0.00 | 51 | 1024.3 |
| 20260505071553 | 75 | 259 | 1.0 | 9.0 | 0.00 | 0.00 | 0.00 | 51 | 1024.3 |
| 20260505071052 | 75 | 261 | 2.0 | 9.0 | 0.00 | 0.00 | 0.00 | 51 | 1024.4 |
| 20260505070552 | 76 | 240 | 2.0 | 8.0 | 0.00 | 0.00 | 0.00 | 50 | 1024.3 |
| 20260505070106 | 76 | 242 | 2.0 | 8.0 | 0.00 | 0.00 | 0.00 | 49 | 1024.4 |
| 20260505065551 | 76 | 263 | 2.0 | 6.0 | 0.00 | 0.00 | 0.00 | 47 | 1024.4 |
| 20260505065113 | 75 | 203 | 2.0 | 8.0 | 0.00 | 0.00 | 0.00 | 47 | 1024.3 |
| 20260505064629 | 75 | 202 | 2.0 | 8.0 | 0.00 | 0.00 | 0.00 | 45 | 1024.3 |
| 20260505064052 | 74 | 151 | 3.0 | 8.0 | 0.00 | 0.00 | 0.00 | 43 | 1024.3 |
| 20260505063553 | 75 | 167 | 2.0 | 6.0 | 0.00 | 0.00 | 0.00 | 42 | 1024.3 |
| 20260505063101 | 76 | 168 | 2.0 | 6.0 | 0.00 | 0.00 | 0.00 | 42 | 1024.3 |
| 20260505062552 | 76 | 170 | 1.0 | 8.0 | 0.00 | 0.00 | 0.00 | 42 | 1024.3 |
| 20260505062053 | 76 | 169 | 3.0 | 8.0 | 0.00 | 0.00 | 0.00 | 42 | 1024.3 |
| 20260505061557 | 77 | 244 | 1.0 | 5.0 | 0.00 | 0.00 | 0.00 | 41 | 1024.3 |
| 20260505061052 | 77 | 264 | 1.0 | 4.0 | 0.00 | 0.00 | 0.00 | 42 | 1024.4 |
| 20260505060553 | 76 | 265 | 1.0 | 4.0 | 0.00 | 0.00 | 0.00 | 44 | 1024.4 |
| 20260505060101 | 76 | 0 | 1.0 | 4.0 | 0.00 | 0.00 | 0.00 | 44 | 1024.2 |
| 20260505055553 | 76 | 264 | 1.0 | 6.0 | 0.00 | 0.00 | 0.00 | 44 | 1024.3 |
| 20260505055053 | 76 | 265 | 1.0 | 7.0 | 0.00 | 0.00 | 0.00 | 44 | 1024.4 |
| 20260505054553 | 76 | 265 | 2.0 | 7.0 | 0.00 | 0.00 | 0.00 | 44 | 1024.3 |
| 20260505054052 | 77 | 263 | 2.0 | 7.0 | 0.00 | 0.00 | 0.00 | 44 | 1024.4 |
| 20260505053552 | 76 | 266 | 1.0 | 6.0 | 0.00 | 0.00 | 0.00 | 45 | 1024.4 |
| 20260505053059 | 76 | 266 | 1.0 | 7.0 | 0.00 | 0.00 | 0.00 | 46 | 1024.4 |
| 20260505052551 | 76 | 265 | 2.0 | 7.0 | 0.00 | 0.00 | 0.00 | 46 | 1024.5 |
| 20260505052051 | 76 | 265 | 1.0 | 7.0 | 0.00 | 0.00 | 0.00 | 47 | 1024.5 |
| 20260505051600 | 75 | 275 | 1.0 | 4.0 | 0.00 | 0.00 | 0.00 | 47 | 1024.6 |
| 20260505051053 | 75 | 276 | 1.0 | 4.0 | 0.00 | 0.00 | 0.00 | 47 | 1024.7 |
| 20260505050553 | 75 | 276 | 1.0 | 6.0 | 0.00 | 0.00 | 0.00 | 47 | 1024.8 |
| 20260505041604 | 70 | 342 | 2.0 | 6.0 | 0.00 | 0.00 | 0.00 | 52 | 1025.5 |
| 20260505041052 | 70 | 342 | 3.0 | 6.0 | 0.00 | 0.00 | 0.00 | 52 | 1025.6 |
| 20260505040552 | 70 | 343 | 1.0 | 5.0 | 0.00 | 0.00 | 0.00 | 53 | 1025.6 |
| 20260505040106 | 69 | 343 | 1.0 | 5.0 | 0.00 | 0.00 | 0.00 | 54 | 1025.6 |
| 20260505035551 | 69 | 343 | 2.0 | 8.0 | 0.00 | 0.00 | 0.00 | 53 | 1025.7 |
| 20260505035051 | 69 | 344 | 2.0 | 8.0 | 0.00 | 0.00 | 0.00 | 53 | 1025.7 |
| 20260505034615 | 69 | 342 | 3.0 | 8.0 | 0.00 | 0.00 | 0.00 | 53 | 1025.7 |
| 20260505034052 | 69 | 69 | 3.0 | 8.0 | 0.00 | 0.00 | 0.00 | 54 | 1025.8 |
| 20260505033552 | 68 | 350 | 3.0 | 9.0 | 0.00 | 0.00 | 0.00 | 55 | 1026.0 |
| 20260505033102 | 68 | 38 | 2.0 | 9.0 | 0.00 | 0.00 | 0.00 | 54 | 1025.9 |
| 20260505032552 | 68 | 40 | 3.0 | 9.0 | 0.00 | 0.00 | 0.00 | 54 | 1026.0 |
| 20260505032051 | 68 | 73 | 3.0 | 6.0 | 0.00 | 0.00 | 0.00 | 54 | 1026.0 |
| 20260505031553 | 68 | 18 | 2.0 | 5.0 | 0.00 | 0.00 | 0.00 | 55 | 1025.9 |
| 20260505031052 | 68 | 17 | 2.0 | 5.0 | 0.00 | 0.00 | 0.00 | 55 | 1026.1 |
| 20260505030554 | 68 | 69 | 1.0 | 4.0 | 0.00 | 0.00 | 0.00 | 57 | 1026.0 |
| 20260505030127 | 67 | 69 | 0.0 | 10.0 | 0.00 | 0.00 | 0.00 | 58 | 1026.1 |
| 20260505025552 | 67 | 69 | 2.0 | 10.0 | 0.00 | 0.00 | 0.00 | 57 | 1026.2 |
| 20260505025052 | 67 | 22 | 1.0 | 6.0 | 0.00 | 0.00 | 0.00 | 58 | 1026.1 |
| 20260505024611 | 66 | 22 | 2.0 | 6.0 | 0.00 | 0.00 | 0.00 | 58 | 1026.1 |
| 20260505024050 | 66 | 22 | 2.0 | 5.0 | 0.00 | 0.00 | 0.00 | 59 | 1026.2 |
| 20260505023551 | 66 | 24 | 2.0 | 6.0 | 0.00 | 0.00 | 0.00 | 60 | 1026.3 |
| 20260505023056 | 66 | 15 | 2.0 | 6.0 | 0.00 | 0.00 | 0.00 | 60 | 1026.3 |
| 20260505022552 | 65 | 98 | 3.0 | 6.0 | 0.00 | 0.00 | 0.00 | 60 | 1026.5 |
| 20260505022051 | 65 | 69 | 3.0 | 6.0 | 0.00 | 0.00 | 0.00 | 60 | 1026.4 |
| 20260505021609 | 65 | 352 | 3.0 | 6.0 | 0.00 | 0.00 | 0.00 | 60 | 1026.5 |
| 20260505021052 | 65 | 61 | 2.0 | 5.0 | 0.00 | 0.00 | 0.00 | 61 | 1026.4 |
| 20260505020552 | 64 | 80 | 2.0 | 8.0 | 0.00 | 0.00 | 0.00 | 62 | 1026.5 |
| 20260505020107 | 64 | 55 | 3.0 | 8.0 | 0.00 | 0.00 | 0.00 | 62 | 1026.4 |
| 20260505015553 | 64 | 75 | 3.0 | 8.0 | 0.00 | 0.00 | 0.00 | 63 | 1026.4 |
| 20260505015055 | 63 | 86 | 2.0 | 8.0 | 0.00 | 0.00 | 0.00 | 65 | 1026.4 |
| 20260505014609 | 63 | 86 | 2.0 | 7.0 | 0.00 | 0.00 | 0.00 | 66 | 1026.6 |
| 20260505014052 | 62 | 86 | 2.0 | 7.0 | 0.00 | 0.00 | 0.00 | 66 | 1026.4 |
| 20260505013551 | 61 | 86 | 3.0 | 8.0 | 0.00 | 0.00 | 0.00 | 66 | 1026.4 |
| 20260505013053 | 61 | 86 | 3.0 | 8.0 | 0.00 | 0.00 | 0.00 | 67 | 1026.4 |
| 20260505012552 | 61 | 86 | 3.0 | 8.0 | 0.00 | 0.00 | 0.00 | 68 | 1026.4 |
| 20260505012052 | 60 | 86 | 3.0 | 8.0 | 0.00 | 0.00 | 0.00 | 68 | 1026.6 |
| 20260505011559 | 60 | 90 | 3.0 | 10.0 | 0.00 | 0.00 | 0.00 | 69 | 1026.5 |
| 20260505011052 | 60 | 89 | 4.0 | 10.0 | 0.00 | 0.00 | 0.00 | 69 | 1026.5 |
| 20260505010552 | 59 | 90 | 5.0 | 10.0 | 0.00 | 0.00 | 0.00 | 70 | 1026.5 |
| 20260505010108 | 59 | 90 | 4.0 | 9.0 | 0.00 | 0.00 | 0.00 | 70 | 1026.5 |
| 20260505005552 | 59 | 105 | 3.0 | 9.0 | 0.00 | 0.00 | 0.00 | 71 | 1026.4 |
| 20260505005052 | 59 | 56 | 3.0 | 9.0 | 0.00 | 0.00 | 0.00 | 72 | 1026.6 |
| 20260505004632 | 58 | 89 | 3.0 | 7.0 | 0.00 | 0.00 | 0.00 | 73 | 1026.6 |
| 20260505004051 | 58 | 103 | 3.0 | 9.0 | 0.00 | 0.00 | 0.00 | 73 | 1026.6 |
| 20260505003552 | 58 | 106 | 4.0 | 9.0 | 0.00 | 0.00 | 0.00 | 73 | 1026.6 |
| 20260505003059 | 57 | 80 | 3.0 | 9.0 | 0.00 | 0.00 | 0.00 | 75 | 1026.5 |
| 20260505002552 | 57 | 90 | 5.0 | 9.0 | 0.00 | 0.00 | 0.00 | 74 | 1026.5 |
| 20260505002052 | 57 | 57 | 3.0 | 7.0 | 0.00 | 0.00 | 0.00 | 74 | 1026.3 |
| 20260505001551 | 57 | 63 | 2.0 | 11.0 | 0.00 | 0.00 | 0.00 | 75 | 1026.3 |
| 20260505001051 | 56 | 56 | 4.0 | 11.0 | 0.00 | 0.00 | 0.00 | 75 | 1026.3 |
| 20260505000551 | 56 | 93 | 4.0 | 9.0 | 0.00 | 0.00 | 0.00 | 76 | 1026.2 |
| 20260505000109 | 56 | 77 | 4.0 | 9.0 | 0.00 | 0.00 | 0.00 | 76 | 1026.1 |
| 20260504235552 | 56 | 53 | 4.0 | 9.0 | 0.00 | 0.00 | 0.00 | 77 | 1026.0 |
| 20260504235052 | 55 | 65 | 4.0 | 11.0 | 0.00 | 0.00 | 0.00 | 78 | 1025.9 |
| 20260504234552 | 55 | 27 | 4.0 | 11.0 | 0.00 | 0.00 | 0.00 | 78 | 1025.7 |
| 20260504234051 | 55 | 66 | 6.0 | 11.0 | 0.00 | 0.00 | 0.00 | 79 | 1025.8 |
| 20260504233552 | 55 | 84 | 4.0 | 11.0 | 0.00 | 0.00 | 0.00 | 79 | 1025.8 |
| 20260504233050 | 54 | 74 | 3.0 | 7.0 | 0.00 | 0.00 | 0.00 | 80 | 1025.7 |
| 20260504232553 | 54 | 77 | 3.0 | 7.0 | 0.00 | 0.00 | 0.00 | 81 | 1025.8 |
| 20260504232051 | 54 | 63 | 2.0 | 7.0 | 0.00 | 0.00 | 0.00 | 82 | 1025.7 |
| 20260504231620 | 53 | 142 | 3.0 | 5.0 | 0.00 | 0.00 | 0.00 | 83 | 1025.7 |
| 20260504231052 | 53 | 141 | 1.0 | 5.0 | 0.00 | 0.00 | 0.00 | 84 | 1025.7 |
| 20260504230552 | 52 | 141 | 1.0 | 5.0 | 0.00 | 0.00 | 0.00 | 84 | 1025.6 |
| 20260504230052 | 52 | 0 | 0.0 | 3.0 | 0.00 | 0.00 | 0.00 | 84 | 1025.5 |
| 20260504225552 | 52 | 141 | 1.0 | 3.0 | 0.00 | 0.00 | 0.00 | 84 | 1025.5 |
| 20260504225054 | 52 | 0 | 0.0 | 2.0 | 0.00 | 0.00 | 0.00 | 84 | 1025.3 |
| 20260504224553 | 52 | 141 | 0.0 | 1.0 | 0.00 | 0.00 | 0.00 | 84 | 1025.3 |
| 20260504224052 | 52 | 0 | 0.0 | 1.0 | 0.00 | 0.00 | 0.00 | 84 | 1025.2 |
| 20260504223552 | 52 | 0 | 0.0 | 2.0 | 0.00 | 0.00 | 0.00 | 84 | 1025.1 |
| 20260504223050 | 52 | 0 | 0.0 | 2.0 | 0.00 | 0.00 | 0.00 | 84 | 1025.0 |
| 20260504222552 | 52 | 141 | 0.0 | 1.0 | 0.00 | 0.00 | 0.00 | 84 | 1024.9 |
| 20260504222051 | 52 | 0 | 0.0 | 1.0 | 0.00 | 0.00 | 0.00 | 84 | 1025.0 |
| 20260504221631 | 52 | 0 | 0.0 | 1.0 | 0.00 | 0.00 | 0.00 | 84 | 1024.9 |
| 20260504221051 | 52 | 0 | 0.0 | 1.0 | 0.00 | 0.00 | 0.00 | 85 | 1024.9 |
| 20260504220552 | 52 | 0 | 0.0 | 1.0 | 0.00 | 0.00 | 0.00 | 85 | 1024.9 |
| 20260504220055 | 52 | 0 | 0.0 | 1.0 | 0.00 | 0.00 | 0.00 | 85 | 1024.9 |
| 20260504215552 | 52 | 0 | 0.0 | 1.0 | 0.00 | 0.00 | 0.00 | 84 | 1024.8 |
| 20260504215052 | 52 | 0 | 0.0 | 2.0 | 0.00 | 0.00 | 0.00 | 84 | 1024.8 |
| 20260504214551 | 52 | 0 | 0.0 | 2.0 | 0.00 | 0.00 | 0.00 | 84 | 1024.8 |
| 20260504214052 | 52 | 0 | 0.0 | 2.0 | 0.00 | 0.00 | 0.00 | 84 | 1024.7 |
| 20260504213552 | 52 | 0 | 0.0 | 2.0 | 0.00 | 0.00 | 0.00 | 84 | 1024.7 |
| 20260504213059 | 52 | 141 | 0.0 | 1.0 | 0.00 | 0.00 | 0.00 | 84 | 1024.6 |
| 20260504212552 | 52 | 0 | 0.0 | 2.0 | 0.00 | 0.00 | 0.00 | 84 | 1024.6 |
| 20260504212051 | 52 | 0 | 0.0 | 2.0 | 0.00 | 0.00 | 0.00 | 84 | 1024.6 |
| 20260504211553 | 52 | 141 | 0.0 | 2.0 | 0.00 | 0.00 | 0.00 | 84 | 1024.7 |